Regional Weather Roundup
Issued by NWS

Home | Current Version | Previous Version | Graphics & Text | Print | Product List | Glossary On
Versions: 1 2 3 4 5 6 7 8 9 10 11 12 13 14 15 16 17 18 19 20 21 22 23 24 25 26 27 28 29 30 31 32 33 34 35 36 37 38 39 40 41 42 43 44 45 46 47 48 49 50
000
ASUS43 KDMX 210401
RWRIA

WEATHER ROUNDUP FOR IOWA
NATIONAL WEATHER SERVICE DES MOINES IA
1100 PM CDT WED SEP 20 2017

NOTE: "FAIR" INDICATES FEW OR NO CLOUDS BELOW 12,000 FEET WITH NO
SIGNIFICANT WEATHER AND/OR OBSTRUCTIONS TO VISIBILITY.

* - THESE STATIONS ARE NOT NWS STATIONS...THUS NOT UNDER NWS
QUALITY CONTROL.  THEY ALSO DO NOT REPORT WEATHER SUCH
AS PRECIPITATION OR FOG.

IAZ001>003-012>014-020>022-031>034-043>046-210500-
   NORTHWEST IOWA

CITY           SKY/WX    TMP DP  RH WIND       PRES   REMARKS
CARROLL *      PTCLDY    59  55  88 CALM      29.92R
CHEROKEE *     CLEAR     53  53  99 CALM      29.92S
DENISON *      CLEAR     55  54  94 CALM      29.93R
LE MARS *      CLEAR     54  52  94 CALM      29.92R
ORANGE CITY *  CLEAR     61  50  67 CALM      29.93R
SHELDON *      CLEAR     50  48  93 CALM      29.92R
SIOUX CITY     CLEAR     53  52  96 CALM      29.91R
SPENCER        CLEAR     49  48  97 N6        29.93R
STORM LAKE *   CLEAR     59  46  63 NE5       29.93R
$$

IAZ055>058-069>071-079>083-090>094-210500-
   SOUTHWEST IOWA

CITY           SKY/WX    TMP DP  RH WIND       PRES   REMARKS
ATLANTIC *     CLEAR     63  59  88 N5        29.91R
AUDUBON *      CLEAR     59  55  88 CALM      29.93R
CLARINDA *     MOCLDY    68  64  88 N6        29.91R
COUNCIL BLFS * CLEAR     64  57  77 NE8       29.90R
CRESTON *      CLEAR     70  61  73 NE7       29.92R
HARLAN  *      CLEAR     61  57  88 CALM      29.94R
LAMONI         MOCLDY    73  67  81 N6        29.88R
RED OAK *      MOCLDY    66  59  77 CALM      29.90R
SHENANDOAH *   PTCLDY    66  61  82 NE6       29.89R
$$

IAZ047>049-059>061-072>074-084-210500-
   CENTRAL IOWA

CITY           SKY/WX    TMP DP  RH WIND       PRES   REMARKS
AMES           MOCLDY    70  60  70 NE7       29.91R
ANKENY *       MOCLDY    68  63  83 N6        29.90R
BOONE *        MOCLDY    66  57  72 NE6       29.91R
CHARITON *     CLOUDY    72  66  83 N6        29.89R
DES MOINES     PTCLDY    74  60  61 NE9       29.89R
GRINNELL*      PTCLDY    72  62  70 N9        29.91R
KNOXVILLE *    MOCLDY    75  63  64 NE9       29.88R
MARSHALLTOWN   CLOUDY    69  60  73 NE8       29.91R
NEWTON *       PTCLDY    72  63  73 NE10      29.90R
PELLA *        PTCLDY    73  64  75 N6        29.89R
PERRY *        MOCLDY    67  55  64 N3        29.91R
$$

IAZ004>006-015-016-023>025-035-036-210500-
   NORTH CENTRAL IOWA

CITY           SKY/WX    TMP DP  RH WIND       PRES   REMARKS
ALGONA *       CLEAR     55  54  94 NE5       29.93R
CLARION *      CLEAR     63  55  77 NE10      29.93R
ESTHERVILLE    CLEAR     53  52  96 N3        29.93R
FORT DODGE *   CLEAR     58  55  90 CALM      29.93R
MASON CITY     CLEAR     55  51  86 CALM      29.96R
FOREST CITY *    N/A     54  54 100 CALM      29.95R
IOWA FALLS *   CLOUDY    66  59  77 E3        29.94R
$$

IAZ007>011-017>019-026>030-037>042-050>054-066-210500-
   NORTHEAST IOWA

CITY           SKY/WX    TMP DP  RH WIND       PRES   REMARKS
CEDAR RAPIDS   CLOUDY    76  71  85 E12       29.88R
CHARLES CITY * CLEAR     61  59  94 NE6       29.95R
CLINTON *      TSTM     N/A N/A N/A SW18G24   29.91F
DECORAH *      CLOUDY    66  63  88 CALM      29.93S
DUBUQUE        CLOUDY    71  67  87 S15       29.91S
MONTICELLO *   CLOUDY    73  68  83 SE9G21    29.89F
OELWEIN *      CLOUDY    70  64  83 N7        29.93S
WATERLOO       MOCLDY    66  61  84 NE6       29.91R
$$

IAZ064-065-067-068-078-210500-
   EAST CENTRAL IOWA

CITY           SKY/WX    TMP DP  RH WIND       PRES   REMARKS
DAVENPORT      TSTM      66  64  93 NW26G39   29.97S VSB 1/2
IOWA CITY      CLOUDY    76  73  91 E5        29.90R THUNDER
MUSCATINE *    CLOUDY    73  72  94 NW16      29.93R
QUAD CITIES    CLOUDY    73  68  84 NW8       29.92R
$$

IAZ062-063-075>077-085>089-095>099-210500-
   SOUTHEAST IOWA

CITY           SKY/WX    TMP DP  RH WIND       PRES   REMARKS
BURLINGTON     CLOUDY    81  70  69 S7        29.86S HX  84
FAIRFIELD *    CLOUDY    77  72  83 S5        29.85F
FORT MADISON * CLOUDY    82  70  65 S7        29.88S HX  86
KEOKUK *       CLOUDY    84  68  58 SW8G14    29.87S HX  87
OSKALOOSA *    CLOUDY    75  71  87 N3        29.89R
OTTUMWA        TSTM      76  74  93 NW9       29.88R FOG
WASHINGTON *   CLOUDY    77  75  94 SE6       29.87S
$$

ABBREVIATIONS USED IN REMARKS
   TC - TEMPERATURES IN CELSIUS
  WCI - WIND CHILL INDEX
   HX - HEAT INDEX
  VSB - VISIBILITY
$$





USA.gov is the U.S. government's official web portal to all federal, state and local government web resources and services.